HVN1661 VVTH-VVTS

Flight info

Callsign HVN1661
Flight time 0h 37m
Altitude 28000
Route KARAN1N KARAN L642 SOSPA W15 VETOM VETOM5A
Aircraft A21N/M-SDE2E3FGHIRWXY/LB1

Departure

Time 2026-05-04 11:22
Airport Dong Tac Airport (VVTH)

Arrival

Time 2026-05-04 12:00
Airport Tan Son Nhat International Airport (VVTS)
Time Latitude Longitude Altitude Speed Heading
2026-05-04 10:56 13.05087 109.34337 24 ft 0 kts 120°
2026-05-04 11:16 13.04938 109.34032 24 ft 18 kts 210°
2026-05-04 11:16 13.04827 109.33968 24 ft 19 kts 209°
2026-05-04 11:16 13.04709 109.33899 24 ft 20 kts 210°
2026-05-04 11:17 13.04585 109.33827 24 ft 21 kts 210°
2026-05-04 11:17 13.04499 109.33777 24 ft 22 kts 210°
2026-05-04 11:19 13.03496 109.33157 24 ft 18 kts 283°
2026-05-04 11:19 13.03555 109.33040 24 ft 19 kts 300°
2026-05-04 11:19 13.03624 109.32919 24 ft 20 kts 300°
2026-05-04 11:19 13.03695 109.32793 23 ft 18 kts 300°
2026-05-04 11:20 13.03769 109.32773 23 ft 13 kts 31°
2026-05-04 11:20 13.03926 109.32865 24 ft 56 kts 30°
2026-05-04 11:20 13.04497 109.33200 23 ft 130 kts 30°
2026-05-04 11:20 13.05430 109.33751 200 ft 165 kts 31°
2026-05-04 11:22 13.10543 109.40382 3832 ft 227 kts 116°
2026-05-04 11:22 13.10150 109.41075 4153 ft 229 kts 119°
2026-05-04 11:23 13.09307 109.42449 4792 ft 230 kts 119°
2026-05-04 11:23 13.08464 109.43849 5423 ft 232 kts 118°
2026-05-04 11:24 12.99682 109.44316 8070 ft 295 kts 210°
2026-05-04 11:25 12.97917 109.43214 8684 ft 298 kts 209°
2026-05-04 11:25 12.96123 109.42128 9319 ft 301 kts 208°
2026-05-04 11:25 12.94305 109.41047 9958 ft 303 kts 208°
2026-05-04 11:26 12.90498 109.38804 10586 ft 331 kts 208°
2026-05-04 11:27 12.75214 109.28741 12914 ft 399 kts 230°
2026-05-04 11:28 12.73455 109.26521 13399 ft 402 kts 231°
2026-05-04 11:28 12.71699 109.24275 13870 ft 405 kts 231°
2026-05-04 11:28 12.69918 109.22012 14293 ft 408 kts 231°
2026-05-04 11:28 12.68121 109.19751 14756 ft 410 kts 230°
2026-05-04 11:29 12.66329 109.17510 15180 ft 412 kts 230°
2026-05-04 11:29 12.64327 109.15387 15569 ft 415 kts 218°
2026-05-04 11:29 12.61922 109.13744 16032 ft 415 kts 211°
2026-05-04 11:29 12.59445 109.12191 16489 ft 417 kts 211°
2026-05-04 11:31 12.41919 109.01105 19177 ft 431 kts 211°
2026-05-04 11:33 12.26039 108.86668 21348 ft 447 kts 227°
2026-05-04 11:33 12.23956 108.84342 21656 ft 449 kts 227°
2026-05-04 11:33 12.21834 108.81980 21967 ft 451 kts 227°
2026-05-04 11:34 12.19706 108.79611 22251 ft 453 kts 227°
2026-05-04 11:34 12.17571 108.77243 22561 ft 455 kts 226°
2026-05-04 11:34 12.15419 108.74853 22890 ft 456 kts 227°
2026-05-04 11:34 12.13268 108.72463 23201 ft 457 kts 227°
2026-05-04 11:35 12.11113 108.70067 23496 ft 459 kts 226°
2026-05-04 11:35 12.08967 108.67684 23715 ft 461 kts 226°
2026-05-04 11:35 12.06788 108.65273 23948 ft 463 kts 226°
2026-05-04 11:35 12.04596 108.62842 24185 ft 464 kts 226°
2026-05-04 11:36 12.02427 108.60430 24422 ft 465 kts 226°
2026-05-04 11:36 12.00235 108.57993 24662 ft 466 kts 226°
2026-05-04 11:36 11.98033 108.55553 24874 ft 467 kts 227°
2026-05-04 11:36 11.95826 108.53107 25106 ft 469 kts 226°
2026-05-04 11:37 11.93616 108.50656 25342 ft 470 kts 227°
2026-05-04 11:37 11.91389 108.48191 25625 ft 470 kts 227°
2026-05-04 11:37 11.89173 108.45735 25941 ft 469 kts 226°
2026-05-04 11:37 11.86961 108.43287 26239 ft 468 kts 226°
2026-05-04 11:38 11.84788 108.40882 26543 ft 466 kts 227°
2026-05-04 11:38 11.82585 108.38444 26860 ft 465 kts 227°
2026-05-04 11:38 11.80394 108.36017 27195 ft 462 kts 227°
2026-05-04 11:38 11.78214 108.33606 27476 ft 462 kts 226°
2026-05-04 11:39 11.76027 108.31190 27655 ft 464 kts 227°
2026-05-04 11:39 11.73856 108.28792 27889 ft 464 kts 226°
2026-05-04 11:40 11.60952 108.14510 27935 ft 464 kts 228°
2026-05-04 11:41 11.58962 108.11908 27926 ft 464 kts 233°
2026-05-04 11:41 11.57095 108.09264 27919 ft 464 kts 234°
2026-05-04 11:41 11.55220 108.06574 27914 ft 465 kts 234°
2026-05-04 11:41 11.53359 108.03874 27912 ft 464 kts 234°
2026-05-04 11:42 11.51498 108.01172 27891 ft 463 kts 234°
2026-05-04 11:42 11.49646 107.98498 27449 ft 463 kts 234°
2026-05-04 11:42 11.47799 107.95851 26730 ft 462 kts 234°
2026-05-04 11:42 11.45937 107.93181 25968 ft 461 kts 234°
2026-05-04 11:43 11.44076 107.90509 25253 ft 460 kts 234°
2026-05-04 11:43 11.42226 107.87856 24537 ft 457 kts 234°
2026-05-04 11:43 11.40381 107.85219 23823 ft 454 kts 234°
2026-05-04 11:43 11.38558 107.82601 23041 ft 451 kts 234°
2026-05-04 11:44 11.36742 107.79997 22206 ft 448 kts 234°
2026-05-04 11:44 11.34962 107.77448 21437 ft 444 kts 234°
2026-05-04 11:44 11.33168 107.74878 20693 ft 440 kts 233°
2026-05-04 11:44 11.31401 107.72349 19971 ft 436 kts 233°
2026-05-04 11:45 11.29646 107.69841 19303 ft 431 kts 233°
2026-05-04 11:45 11.27938 107.67399 18685 ft 426 kts 233°
2026-05-04 11:45 11.26429 107.65242 18140 ft 422 kts 233°
2026-05-04 11:45 11.24726 107.62811 17455 ft 417 kts 233°
2026-05-04 11:46 11.22976 107.60472 16788 ft 411 kts 226°
2026-05-04 11:46 11.20976 107.58414 16154 ft 406 kts 223°
2026-05-04 11:46 11.18950 107.56403 15578 ft 406 kts 223°
2026-05-04 11:46 11.16926 107.54395 15010 ft 405 kts 223°
2026-05-04 11:47 11.14927 107.52416 14432 ft 405 kts 223°
2026-05-04 11:47 11.12908 107.50409 13854 ft 406 kts 223°
2026-05-04 11:47 11.10894 107.48407 13219 ft 403 kts 224°
2026-05-04 11:47 11.08905 107.46421 12615 ft 397 kts 223°
2026-05-04 11:48 11.06942 107.44462 12033 ft 391 kts 223°
2026-05-04 11:48 11.05012 107.42537 11463 ft 386 kts 224°
2026-05-04 11:48 11.03121 107.40653 11147 ft 374 kts 223°
2026-05-04 11:48 11.01408 107.38726 10918 ft 361 kts 235°
2026-05-04 11:49 11.00396 107.36461 10821 ft 344 kts 253°
2026-05-04 11:49 10.99794 107.34170 10808 ft 325 kts 255°
2026-05-04 11:49 10.99242 107.32028 10805 ft 312 kts 254°
2026-05-04 11:49 10.98666 107.29914 10529 ft 310 kts 253°
2026-05-04 11:50 10.98043 107.27791 9996 ft 313 kts 252°
2026-05-04 11:50 10.97410 107.25683 9591 ft 310 kts 252°
2026-05-04 11:50 10.96788 107.23596 9195 ft 306 kts 253°
2026-05-04 11:50 10.96187 107.21558 8836 ft 303 kts 253°
2026-05-04 11:51 10.95582 107.19496 8472 ft 304 kts 253°
2026-05-04 11:51 10.94975 107.17428 8097 ft 304 kts 253°
2026-05-04 11:51 10.94363 107.15367 7729 ft 302 kts 253°
2026-05-04 11:51 10.93765 107.13356 7368 ft 298 kts 253°
2026-05-04 11:52 10.93173 107.11341 6982 ft 295 kts 254°
2026-05-04 11:52 10.92584 107.09344 6606 ft 293 kts 254°
2026-05-04 11:52 10.91997 107.07354 6217 ft 293 kts 254°
2026-05-04 11:52 10.91612 107.06042 5953 ft 294 kts 254°
2026-05-04 11:53 10.90863 107.03496 5516 ft 289 kts 253°
2026-05-04 11:53 10.90285 107.01547 5148 ft 286 kts 253°
2026-05-04 11:53 10.89708 106.99614 4757 ft 284 kts 253°
2026-05-04 11:53 10.89142 106.97720 4380 ft 283 kts 253°
2026-05-04 11:55 10.87755 106.85276 3127 ft 246 kts 282°
2026-05-04 11:55 10.88109 106.83602 2915 ft 236 kts 277°
2026-05-04 11:56 10.88168 106.81979 2662 ft 224 kts 261°
2026-05-04 11:56 10.87859 106.80512 2545 ft 205 kts 250°
2026-05-04 11:56 10.87343 106.79225 2413 ft 190 kts 245°
2026-05-04 11:56 10.86883 106.78012 2267 ft 177 kts 245°
2026-05-04 11:57 10.86451 106.76864 2090 ft 173 kts 245°
2026-05-04 11:57 10.86020 106.75720 1890 ft 172 kts 245°
2026-05-04 11:57 10.85600 106.74599 1713 ft 166 kts 245°
2026-05-04 11:57 10.85207 106.73555 1500 ft 153 kts 245°
2026-05-04 11:58 10.84829 106.72549 1289 ft 153 kts 245°
2026-05-04 11:58 10.84447 106.71530 1079 ft 156 kts 245°
2026-05-04 11:58 10.84060 106.70500 894 ft 154 kts 245°
2026-05-04 11:58 10.83683 106.69498 744 ft 152 kts 246°
2026-05-04 11:59 10.83313 106.68505 544 ft 147 kts 246°
2026-05-04 11:59 10.82941 106.67523 358 ft 149 kts 245°
2026-05-04 11:59 10.82575 106.66544 127 ft 148 kts 245°
2026-05-04 11:59 10.82214 106.65594 48 ft 137 kts 249°
2026-05-04 12:00 10.81923 106.64839 42 ft 89 kts 249°
2026-05-04 12:00 10.81786 106.64485 43 ft 29 kts 239°
2026-05-04 12:00 10.81642 106.64333 38 ft 30 kts 219°
2026-05-04 12:00 10.81506 106.64301 41 ft 21 kts 158°
2026-05-04 12:01 10.81364 106.64360 43 ft 23 kts 158°
2026-05-04 12:01 10.81271 106.64398 41 ft 16 kts 154°
2026-05-04 12:02 10.81257 106.65080 43 ft 16 kts 141°
2026-05-04 12:03 10.81280 106.65189 43 ft 17 kts 69°
2026-05-04 12:03 10.81324 106.65306 43 ft 18 kts 69°
2026-05-04 12:03 10.81370 106.65429 43 ft 19 kts 69°
2026-05-04 12:03 10.81418 106.65555 42 ft 19 kts 69°
2026-05-04 12:04 10.81455 106.65655 42 ft 4 kts 69°
2026-05-04 12:04 10.81473 106.65676 42 ft 5 kts 20°
2026-05-04 12:04 10.81508 106.65667 42 ft 5 kts 339°
2026-05-04 12:04 10.81518 106.65663 42 ft 0 kts 339°